Powrót do katalogu

STARLINK-6085

AktywnyŁącznośćVLEO
NORAD 57115·PAYLOAD·🇺🇸 United States

Wystrzelony Jun 23, 2023 z Cape Canaveral Space Force Station

Loading…

Następne Przeloty (najbliższe 24 godziny)

TLE

ŚwieżeSource: CelesTrak SupGP

Epoka: Sep 15, 2026, 02:24 UTC

1 57115C 23090Q   26258.10048611  .00045939  00000+0  20286-2 0  2584
2 57115  42.9964 290.8037 0019333 347.9991   8.1240 15.20755596    16

Śledź STARLINK-6085 w czasie rzeczywistym z AllMySat

Download on the App Store